This is the latest recevied weather packets stored in our database for station/object W6SNO-1. If no packets are shown the sender has not sent any weather packets the latest 10 day(s).
| Time | Temp. | Humidity | Pressure | Rain* | Wind** | Luminosity | Snow |
|---|---|---|---|---|---|---|---|
| 1777519324 | 16.11° C | 72% | 1016.8 hPa | 0 mm | - | 0 W/m² | - |
| 1777519021 | 16.11° C | 72% | 1016.8 hPa | 0 mm | - | 0 W/m² | - |
| 1777518717 | 16.11° C | 72% | 1016.6 hPa | 0 mm | - | 0 W/m² | - |
| 1777518414 | 16.11° C | 72% | 1016.5 hPa | 0 mm | - | 1 W/m² | - |
| 1777518109 | 16.11° C | 72% | 1016.7 hPa | 0 mm | - | 1 W/m² | - |
| 1777517806 | 16.67° C | 71% | 1016.2 hPa | 0 mm | - | 5 W/m² | - |
| 1777517502 | 16.67° C | 71% | 1016.5 hPa | 0 mm | - | 5 W/m² | - |
| 1777516899 | 16.67° C | 69% | 1016.3 hPa | 0 mm | - | 12 W/m² | - |
| 1777516596 | 17.22° C | 69% | 1016.2 hPa | 0 mm | - | 12 W/m² | - |
| 1777516291 | 17.22° C | 68% | 1016.1 hPa | 0 mm | - | 16 W/m² | - |
| 1777515987 | 17.78° C | 67% | 1016.2 hPa | 0 mm | - | 19 W/m² | - |
| 1777515684 | 17.78° C | 67% | 1016.4 hPa | 0 mm | - | 24 W/m² | - |
| 1777515381 | 18.33° C | 66% | 1016.2 hPa | 0 mm | - | 26 W/m² | - |
| 1777515077 | 18.33° C | 66% | 1016.3 hPa | 0 mm | - | 26 W/m² | - |
| 1777514774 | 18.89° C | 65% | 1016.1 hPa | 0 mm | - | 40 W/m² | - |
| 1777514471 | 18.89° C | 65% | 1016.3 hPa | 0 mm | - | 40 W/m² | - |
| 1777514168 | 18.33° C | 65% | 1016.1 hPa | 0 mm | - | 49 W/m² | - |
| 1777513864 | 18.89° C | 64% | 1016 hPa | 0 mm | - | 50 W/m² | - |
| 1777513562 | 18.89° C | 64% | 1016.1 hPa | 0 mm | - | 47 W/m² | - |
| 1777513258 | 18.89° C | 65% | 1016 hPa | 0 mm | - | 62 W/m² | - |
| 1777512954 | 18.89° C | 65% | 1016.1 hPa | 0 mm | - | 68 W/m² | - |
| 1777512651 | 18.89° C | 65% | 1015.8 hPa | 0 mm | - | 80 W/m² | - |
| 1777512348 | 19.44° C | 64% | 1016 hPa | 0 mm | - | 87 W/m² | - |
| 1777512045 | 19.44° C | 63% | 1016 hPa | 0 mm | - | 97 W/m² | - |
| 1777511743 | 20° C | 63% | 1015.8 hPa | 0 mm | - | 109 W/m² | - |
* Rain latest hour (hover to see other rain measurements)
** Current wind speed in m/s (hover to see current wind gust speed)